Simultaneous Nadir Overpasses (SNOs) Predictions

Prediction of SNOs between GOES-16 and METOP-B Satellite Orbit:

Table of predicted SNOs for the next 14.0 days since TLE Epoch: 6/22/2024
Index Date Time (GOES-16) GOES-16 Lat,Lon METOP-B Lat,Lon Distance(km) Time Diff (sec)
1 06/24/2024 14:21:23 0.04, -75.22 0.05, -75.25 4.08 80
2 06/27/2024 02:22:32 -0.03, -75.23 0.03, -74.90 36.47 80
3 06/28/2024 14:38:48 0.03, -75.25 0.98, -79.50 484.51 80
4 06/29/2024 14:20:52 0.03, -75.26 -0.12, -74.52 83.90 80
5 07/01/2024 02:39:57 -0.03, -75.27 -0.89, -79.15 442.05 80
6 07/02/2024 02:16:41 -0.03, -75.29 0.23, -74.18 126.49 80
7 07/03/2024 14:35:37 0.03, -75.31 0.77, -78.77 393.78 80
8 07/04/2024 14:17:40 0.02, -75.33 -0.34, -73.80 175.02 80
9 07/06/2024 02:36:45 -0.02, -75.35 -0.71, -78.42 350.09 80
